Time,TemperatureF,DewpointF,PressureIn,WindDirection,WindDirectionDegrees,WindSpeedMPH,WindSpeedGustMPH,Humidity,HourlyPrecipIn,Conditions,Clouds,dailyrainin,SoftwareType,DateUTC
2013-02-26 00:12:00,33.6,27.0,30.25,NNW,336,0.0,-999.0,78,-99.99,,,0.00,weatherlink.com 1.10,2013-02-26 05:12:00,
2013-02-26 00:27:00,33.4,28.0,30.24,NNW,336,0.0,-999.0,79,-99.99,,,0.00,weatherlink.com 1.10,2013-02-26 05:27:00,
2013-02-26 00:42:00,33.1,27.0,30.24,NNW,336,0.0,-999.0,79,-99.99,,,0.00,weatherlink.com 1.10,2013-02-26 05:42:00,
2013-02-26 00:57:00,31.8,27.0,30.24,NNW,336,0.0,-999.0,81,-99.99,,,0.00,weatherlink.com 1.10,2013-02-26 05:57:00,
2013-02-26 01:12:00,31.8,27.0,30.23,NNW,336,0.0,-999.0,81,-99.99,,,0.00,weatherlink.com 1.10,2013-02-26 06:12:00,
2013-02-26 01:27:00,31.7,27.0,30.23,NNW,336,0.0,-999.0,82,-99.99,,,0.00,weatherlink.com 1.10,2013-02-26 06:27:00,
2013-02-26 01:42:00,31.8,27.0,30.24,NNW,336,0.0,-999.0,82,-99.99,,,0.00,weatherlink.com 1.10,2013-02-26 06:42:00,
2013-02-26 01:57:00,31.8,27.0,30.25,NNW,336,0.0,-999.0,83,-99.99,,,0.00,weatherlink.com 1.10,2013-02-26 06:57:00,
2013-02-26 02:12:00,31.9,27.0,30.26,WNW,288,0.0,-999.0,83,-99.99,,,0.00,weatherlink.com 1.10,2013-02-26 07:12:00,
2013-02-26 02:27:00,31.5,27.0,30.27,WNW,288,1.0,-999.0,83,-99.99,,,0.00,weatherlink.com 1.10,2013-02-26 07:27:00,
2013-02-26 02:42:00,31.1,27.0,30.27,WNW,288,1.0,-999.0,83,-99.99,,,0.00,weatherlink.com 1.10,2013-02-26 07:42:00,
2013-02-26 02:57:00,31.0,26.0,30.27,WNW,288,0.0,-999.0,83,-99.99,,,0.00,weatherlink.com 1.10,2013-02-26 07:57:00,
2013-02-26 03:12:00,31.0,26.0,30.27,WNW,288,0.0,-999.0,83,-99.99,,,0.00,weatherlink.com 1.10,2013-02-26 08:12:00,
2013-02-26 03:27:00,31.6,27.0,30.28,WNW,288,1.0,-999.0,83,-99.99,,,0.00,weatherlink.com 1.10,2013-02-26 08:27:00,
2013-02-26 03:42:00,31.7,27.0,30.28,WNW,288,0.0,-999.0,83,-99.99,,,0.00,weatherlink.com 1.10,2013-02-26 08:42:00,
2013-02-26 03:57:00,32.3,27.0,30.27,WNW,288,0.0,-999.0,82,-99.99,,,0.00,weatherlink.com 1.10,2013-02-26 08:57:00,
2013-02-26 04:12:00,32.2,27.0,30.26,WNW,288,0.0,-999.0,82,-99.99,,,0.00,weatherlink.com 1.10,2013-02-26 09:12:00,
2013-02-26 04:27:00,32.0,27.0,30.27,WNW,288,0.0,-999.0,82,-99.99,,,0.00,weatherlink.com 1.10,2013-02-26 09:27:00,
2013-02-26 04:42:00,32.3,28.0,30.27,WNW,288,0.0,-999.0,83,-99.99,,,0.00,weatherlink.com 1.10,2013-02-26 09:42:00,
2013-02-26 04:57:00,32.4,28.0,30.27,WNW,288,0.0,-999.0,82,-99.99,,,0.00,weatherlink.com 1.10,2013-02-26 09:57:00,
2013-02-26 05:12:00,32.7,28.0,30.28,WNW,288,0.0,-999.0,82,-99.99,,,0.00,weatherlink.com 1.10,2013-02-26 10:12:00,
2013-02-26 05:27:00,32.9,28.0,30.28,WNW,288,0.0,-999.0,82,-99.99,,,0.00,weatherlink.com 1.10,2013-02-26 10:27:00,
2013-02-26 05:42:00,32.9,28.0,30.29,WNW,288,0.0,-999.0,82,-99.99,,,0.00,weatherlink.com 1.10,2013-02-26 10:42:00,
2013-02-26 05:57:00,32.8,28.0,30.28,WNW,288,0.0,-999.0,82,-99.99,,,0.00,weatherlink.com 1.10,2013-02-26 10:57:00,
2013-02-26 06:12:00,32.7,28.0,30.28,WNW,288,0.0,-999.0,81,-99.99,,,0.00,weatherlink.com 1.10,2013-02-26 11:12:00,
2013-02-26 06:27:00,32.6,27.0,30.28,WNW,288,0.0,-999.0,81,-99.99,,,0.00,weatherlink.com 1.10,2013-02-26 11:27:00,
2013-02-26 06:42:00,32.4,27.0,30.28,WNW,288,1.0,-999.0,81,-99.99,,,0.00,weatherlink.com 1.10,2013-02-26 11:42:00,
2013-02-26 06:57:00,32.6,27.0,30.28,WNW,288,2.0,-999.0,80,-99.99,,,0.00,weatherlink.com 1.10,2013-02-26 11:57:00,
2013-02-26 07:12:00,32.8,27.0,30.28,WNW,288,0.0,-999.0,80,-99.99,,,0.00,weatherlink.com 1.10,2013-02-26 12:12:00,
2013-02-26 07:27:00,33.2,28.0,30.29,WNW,288,0.0,-999.0,80,-99.99,,,0.00,weatherlink.com 1.10,2013-02-26 12:27:00,
2013-02-26 07:42:00,33.5,28.0,30.29,WNW,288,0.0,-999.0,79,-99.99,,,0.00,weatherlink.com 1.10,2013-02-26 12:42:00,
2013-02-26 07:57:00,34.1,28.0,30.30,WNW,288,0.0,-999.0,77,-99.99,,,0.00,weatherlink.com 1.10,2013-02-26 12:57:00,
2013-02-26 08:12:00,34.7,28.0,30.30,WNW,288,0.0,-999.0,76,-99.99,,,0.00,weatherlink.com 1.10,2013-02-26 13:12:00,
2013-02-26 08:27:00,35.0,28.0,30.31,West,281,0.0,-999.0,74,-99.99,,,0.00,weatherlink.com 1.10,2013-02-26 13:27:00,
2013-02-26 08:43:00,35.0,28.0,30.31,ESE,123,4.0,-999.0,74,-99.99,,,0.00,weatherlink.com 1.10,2013-02-26 13:43:00,
2013-02-26 08:58:00,34.8,28.0,30.30,NE,48,1.0,-999.0,75,-99.99,,,0.00,weatherlink.com 1.10,2013-02-26 13:58:00,
2013-02-26 09:13:00,35.1,27.0,30.30,NE,50,2.0,-999.0,73,-99.99,,,0.00,weatherlink.com 1.10,2013-02-26 14:13:00,
2013-02-26 09:28:00,36.9,28.0,30.31,NE,50,2.0,-999.0,70,-99.99,,,0.00,weatherlink.com 1.10,2013-02-26 14:28:00,
2013-02-26 09:43:00,36.8,27.0,30.32,ENE,69,0.0,-999.0,68,-99.99,,,0.00,weatherlink.com 1.10,2013-02-26 14:43:00,
2013-02-26 09:58:00,36.8,27.0,30.32,ENE,69,0.0,-999.0,69,-99.99,,,0.00,weatherlink.com 1.10,2013-02-26 14:58:00,
2013-02-26 10:13:00,37.0,27.0,30.32,ESE,103,2.0,-999.0,68,-99.99,,,0.00,weatherlink.com 1.10,2013-02-26 15:13:00,
2013-02-26 10:28:00,37.0,28.0,30.31,ESE,103,0.0,-999.0,69,-99.99,,,0.00,weatherlink.com 1.10,2013-02-26 15:28:00,
2013-02-26 10:43:00,36.9,28.0,30.31,ESE,109,4.0,-999.0,69,-99.99,,,0.00,weatherlink.com 1.10,2013-02-26 15:43:00,
2013-02-26 10:58:00,37.1,28.0,30.31,ESE,103,2.0,-999.0,69,-99.99,,,0.00,weatherlink.com 1.10,2013-02-26 15:58:00,
2013-02-26 11:13:00,37.3,28.0,30.31,East,89,0.0,-999.0,69,-99.99,,,0.00,weatherlink.com 1.10,2013-02-26 16:13:00,
2013-02-26 11:28:00,37.6,27.0,30.31,East,97,7.0,-999.0,66,-99.99,,,0.00,weatherlink.com 1.10,2013-02-26 16:28:00,
2013-02-26 11:43:00,38.6,28.0,30.31,ESE,122,6.0,-999.0,66,-99.99,,,0.00,weatherlink.com 1.10,2013-02-26 16:43:00,
2013-02-26 11:58:00,38.3,28.0,30.30,ESE,114,4.0,-999.0,66,-99.99,,,0.00,weatherlink.com 1.10,2013-02-26 16:58:00,
2013-02-26 12:13:00,39.0,28.0,30.30,SE,130,7.0,-999.0,64,-99.99,,,0.00,weatherlink.com 1.10,2013-02-26 17:13:00,
2013-02-26 12:28:00,38.4,27.0,30.30,East,101,2.0,-999.0,63,-99.99,,,0.00,weatherlink.com 1.10,2013-02-26 17:28:00,
2013-02-26 12:43:00,37.6,26.0,30.29,ESE,103,7.0,-999.0,64,-99.99,,,0.00,weatherlink.com 1.10,2013-02-26 17:43:00,
2013-02-26 12:58:00,37.9,27.0,30.29,SE,140,4.0,-999.0,66,-99.99,,,0.00,weatherlink.com 1.10,2013-02-26 17:58:00,
2013-02-26 13:13:00,37.8,27.0,30.27,ESE,119,4.0,-999.0,66,-99.99,,,0.00,weatherlink.com 1.10,2013-02-26 18:13:00,
2013-02-26 13:28:00,37.7,28.0,30.27,East,99,2.0,-999.0,67,-99.99,,,0.00,weatherlink.com 1.10,2013-02-26 18:28:00,
2013-02-26 13:43:00,37.9,27.0,30.27,SE,126,2.0,-999.0,66,-99.99,,,0.00,weatherlink.com 1.10,2013-02-26 18:43:00,
2013-02-26 13:58:00,37.7,28.0,30.26,East,99,4.0,-999.0,68,-99.99,,,0.00,weatherlink.com 1.10,2013-02-26 18:58:00,
2013-02-26 14:13:00,37.5,28.0,30.25,ESE,109,1.0,-999.0,69,-99.99,,,0.00,weatherlink.com 1.10,2013-02-26 19:13:00,
2013-02-26 14:28:00,37.3,28.0,30.25,East,90,4.0,-999.0,68,-99.99,,,0.00,weatherlink.com 1.10,2013-02-26 19:28:00,
2013-02-26 14:43:00,37.9,28.0,30.25,East,90,5.0,-999.0,67,-99.99,,,0.00,weatherlink.com 1.10,2013-02-26 19:43:00,
2013-02-26 14:58:00,37.3,27.0,30.26,ESE,119,4.0,-999.0,67,-99.99,,,0.00,weatherlink.com 1.10,2013-02-26 19:58:00,
2013-02-26 15:13:00,37.2,27.0,30.25,SSE,147,5.0,-999.0,68,-99.99,,,0.00,weatherlink.com 1.10,2013-02-26 20:13:00,
2013-02-26 15:28:00,37.2,28.0,30.26,SE,136,5.0,-999.0,69,-99.99,,,0.00,weatherlink.com 1.10,2013-02-26 20:28:00,
2013-02-26 15:43:00,36.7,28.0,30.25,ESE,108,4.0,-999.0,71,-99.99,,,0.00,weatherlink.com 1.10,2013-02-26 20:43:00,
2013-02-26 15:58:00,36.4,29.0,30.24,SE,135,2.0,-999.0,73,-99.99,,,0.00,weatherlink.com 1.10,2013-02-26 20:58:00,
2013-02-26 16:13:00,36.3,28.0,30.23,SE,145,5.0,-999.0,73,-99.99,,,0.00,weatherlink.com 1.10,2013-02-26 21:13:00,
2013-02-26 16:28:00,36.0,29.0,30.23,ESE,119,4.0,-999.0,75,-99.99,,,0.00,weatherlink.com 1.10,2013-02-26 21:28:00,
2013-02-26 16:43:00,35.9,29.0,30.21,ESE,115,1.0,-999.0,75,-99.99,,,0.00,weatherlink.com 1.10,2013-02-26 21:43:00,
2013-02-26 16:58:00,35.6,28.0,30.21,SE,135,1.0,-999.0,74,-99.99,,,0.00,weatherlink.com 1.10,2013-02-26 21:58:00,
2013-02-26 17:13:00,35.5,28.0,30.21,ESE,118,2.0,-999.0,75,-99.99,,,0.00,weatherlink.com 1.10,2013-02-26 22:13:00,
2013-02-26 17:28:00,35.3,28.0,30.22,SE,126,7.0,-999.0,75,-99.99,,,0.00,weatherlink.com 1.10,2013-02-26 22:28:00,
2013-02-26 17:43:00,35.1,28.0,30.21,ESE,121,5.0,-999.0,75,-99.99,,,0.00,weatherlink.com 1.10,2013-02-26 22:43:00,
2013-02-26 17:58:00,34.8,28.0,30.20,SE,130,4.0,-999.0,76,-99.99,,,0.00,weatherlink.com 1.10,2013-02-26 22:58:00,
2013-02-26 18:13:00,34.5,28.0,30.19,SE,124,5.0,-999.0,78,-99.99,,,0.00,weatherlink.com 1.10,2013-02-26 23:13:00,
2013-02-26 18:28:00,34.3,28.0,30.19,ESE,110,4.0,-999.0,77,-99.99,,,0.00,weatherlink.com 1.10,2013-02-26 23:28:00,
2013-02-26 18:43:00,34.2,27.0,30.20,ESE,105,4.0,-999.0,75,-99.99,,,0.00,weatherlink.com 1.10,2013-02-26 23:43:00,
2013-02-26 18:58:00,34.1,26.0,30.21,East,95,4.0,-999.0,73,-99.99,,,0.00,weatherlink.com 1.10,2013-02-26 23:58:00,
2013-02-26 19:13:00,33.9,26.0,30.20,SE,134,8.0,-999.0,72,-99.99,,,0.00,weatherlink.com 1.10,2013-02-27 00:13:00,
2013-02-26 19:28:00,33.5,26.0,30.18,ENE,69,5.0,-999.0,73,-99.99,,,0.00,weatherlink.com 1.10,2013-02-27 00:28:00,
2013-02-26 19:43:00,33.5,26.0,30.17,ENE,78,3.0,-999.0,74,-99.99,,,0.00,weatherlink.com 1.10,2013-02-27 00:43:00,
2013-02-26 19:58:00,33.3,26.0,30.18,ENE,78,10.0,-999.0,75,-99.99,,,0.00,weatherlink.com 1.10,2013-02-27 00:58:00,
2013-02-26 20:13:00,33.3,26.0,30.18,ESE,111,4.0,-999.0,75,-99.99,,,0.00,weatherlink.com 1.10,2013-02-27 01:13:00,
2013-02-26 20:28:00,33.4,26.0,30.18,ESE,117,4.0,-999.0,75,-99.99,,,0.00,weatherlink.com 1.10,2013-02-27 01:28:00,
2013-02-26 20:43:00,33.3,27.0,30.17,East,101,5.0,-999.0,76,-99.99,,,0.00,weatherlink.com 1.10,2013-02-27 01:43:00,
2013-02-26 20:58:00,33.2,26.0,30.15,East,94,11.0,-999.0,76,-99.99,,,0.00,weatherlink.com 1.10,2013-02-27 01:58:00,
2013-02-26 21:13:00,33.1,27.0,30.14,ESE,121,8.0,-999.0,77,-99.99,,,0.00,weatherlink.com 1.10,2013-02-27 02:13:00,
2013-02-26 21:29:00,32.6,27.0,30.13,East,93,4.0,-999.0,81,-99.99,,,0.00,weatherlink.com 1.10,2013-02-27 02:29:00,
2013-02-26 21:44:00,32.4,28.0,30.13,ESE,113,8.0,-999.0,82,-99.99,,,0.00,weatherlink.com 1.10,2013-02-27 02:44:00,
2013-02-26 21:59:00,32.1,28.0,30.11,ENE,63,7.0,-999.0,83,-99.99,,,0.00,weatherlink.com 1.10,2013-02-27 02:59:00,
2013-02-26 22:14:00,32.2,28.0,30.10,ESE,109,16.0,-999.0,84,-99.99,,,0.00,weatherlink.com 1.10,2013-02-27 03:14:00,
2013-02-26 22:29:00,32.1,28.0,30.09,South,169,11.0,-999.0,85,-99.99,,,0.00,weatherlink.com 1.10,2013-02-27 03:29:00,
2013-02-26 22:44:00,32.1,28.0,30.08,East,100,12.0,-999.0,86,-99.99,,,0.00,weatherlink.com 1.10,2013-02-27 03:44:00,
2013-02-26 22:59:00,32.0,29.0,30.08,ENE,78,5.0,-999.0,87,-99.99,,,0.00,weatherlink.com 1.10,2013-02-27 03:59:00,
2013-02-26 23:14:00,32.1,29.0,30.07,ENE,78,5.0,-999.0,88,-99.99,,,0.00,weatherlink.com 1.10,2013-02-27 04:14:00,
2013-02-26 23:29:00,32.2,29.0,30.06,ESE,103,6.0,-999.0,88,-99.99,,,0.00,weatherlink.com 1.10,2013-02-27 04:29:00,
2013-02-26 23:44:00,32.3,29.0,30.05,East,99,9.0,-999.0,88,-99.99,,,0.00,weatherlink.com 1.10,2013-02-27 04:44:00,
2013-02-26 23:59:00,32.4,30.0,30.04,East,90,12.0,-999.0,89,-99.99,,,0.00,weatherlink.com 1.10,2013-02-27 04:59:00,